#timestamp,LO_Frequency,Hit,StdDev 
1634961615.2,286047005.3,N
1634961635.0,286047004.7,N
1634961635.9,286047004.7,N
1634961655.8,286047007.6,Y
1634961675.6,286047000.5,P
1634961695.4,286046998.1,N
1634961715.3,286046999.5,N
1634961735.1,286046998.9,N
1634961755.9,286047000.5,N
1634961775.7,286046999.4,N
1634961795.5,286047000.8,N
1634961815.4,286046999.6,N
1634961835.2,286046999.3,N
1634961855.0,286047000.1,N
1634961855.9,286047000.1,N
1634961875.8,286047001.0,N
1634961895.6,286046998.1,N
1634961915.5,286046999.4,N
1634961935.3,286046995.4,Y
1634961955.1,286046995.5,P
1634961975.9,286046996.2,N
1634961995.7,286046996.4,N
1634962015.5,286046999.3,N
1634962035.4,286046996.7,N
1634962055.2,286046997.1,N
1634962075.1,286046997.2,N
1634962076.0,286046997.2,N
1634962095.8,286046997.6,N
1634962115.6,286047001.1,N
1634962135.5,286046998.9,N
1634962155.3,286046997.2,N
1634962175.1,286047000.6,N
1634962195.9,286046999.7,N
1634962215.7,286047002.5,N
1634962235.6,286047000.5,N
1634962255.4,286047002.1,N
1634962275.2,286047002.4,N
1634962295.1,286047000.2,N
1634962296.0,286047000.2,N
1634962315.8,286047002.7,N
1634962335.6,286047002.2,N
1634962355.5,286046998.1,N
1634962375.3,286046999.6,N
1634962395.2,286046997.3,N
1634962415.9,286046996.7,N
1634962435.7,286047001.1,N
1634962455.6,286047000.3,N
1634962475.4,286047001.3,N
1634962495.2,286047003.8,N
1634962515.1,286047006.0,N
1634962516.0,286047006.0,N
1634962535.8,286047002.9,N
1634962555.7,286047001.7,N
1634962575.5,286047000.7,N
1634962595.3,286047001.1,N
1634962615.2,286046996.6,N
1634962635.0,286046998.1,N
1634962635.9,286046998.1,N
1634962655.8,286047000.5,N
1634962675.6,286047002.7,N
1634962695.4,286046998.2,N
1634962715.3,286047001.2,N
1634962735.1,286047000.0,N
1634962755.9,286047001.5,N
1634962775.7,286047003.3,N
1634962795.5,286047005.0,N
1634962815.4,286047002.9,N
1634962835.2,286047003.6,N
1634962855.0,286047004.0,N
1634962855.9,286047004.0,N
1634962875.8,286047003.1,N
1634962895.6,286047003.0,N
1634962915.5,286047004.2,N
1634962935.3,286047001.5,N
1634962955.1,286047003.8,N
1634962975.9,286047004.1,N
1634962995.7,286047001.6,N
1634963015.6,286047002.8,N
1634963035.4,286047002.6,N
1634963055.2,286047002.3,N
1634963075.1,286047001.3,N
1634963076.0,286047001.3,N
1634963095.8,286047001.7,N
1634963115.6,286047004.3,N
1634963135.5,286047002.2,N
1634963155.3,286046999.3,N
1634963175.2,286046996.4,N
1634963195.9,286046995.7,N
1634963215.7,286046996.0,N
1634963235.6,286046996.3,N
1634963255.4,286046992.0,Y
1634963275.2,286046991.7,P
1634963295.1,286046993.9,N
1634963296.0,286046993.9,N
1634963315.8,286046993.7,N
1634963335.7,286046995.9,N
1634963355.5,286046998.5,N
1634963375.3,286046997.5,N
1634963395.2,286046999.2,N
1634963415.0,286046996.7,N
1634963415.9,286046996.7,N
1634963435.8,286046998.1,N
1634963455.6,286046998.5,N
1634963475.4,286047000.2,N
1634963495.3,286047001.4,N
1634963515.1,286047003.0,N
1634963535.8,286047004.8,N
1634963555.7,286047006.8,N
1634963575.5,286047005.3,N
1634963595.4,286047003.7,N
1634963615.2,286047002.1,N
1634963635.0,286047000.3,N
1634963635.9,286047000.3,N
1634963655.8,286047000.0,N
1634963675.6,286046996.6,N
1634963695.4,286046994.0,N
1634963715.3,286046994.7,N
1634963735.1,286046994.1,N
1634963755.9,286046995.5,N
1634963775.7,286046994.9,N
1634963795.5,286046994.9,N
1634963815.4,286046995.4,N
1634963835.2,286046997.1,N
1634963855.1,286046996.2,N
1634963856.0,286046996.2,N
1634963875.8,286046997.0,N
1634963895.6,286046998.8,N
1634963915.5,286046998.2,N
1634963935.3,286047001.6,N
1634963955.1,286046999.7,N
1634963975.9,286046998.8,N
1634963995.7,286046998.1,N
1634964015.6,286046999.7,N
1634964035.4,286047002.6,N
1634964055.2,286046999.8,N
1634964075.1,286047004.4,N
1634964076.0,286047004.4,N
1634964095.8,286047005.3,N
1634964115.7,286047004.6,N
1634964135.5,286047003.2,N
1634964155.3,286047004.1,N
1634964175.2,286047003.5,N
1634964195.0,286047004.2,N
1634964195.9,286047004.2,N
1634964215.7,286047004.8,N
1634964235.6,286047006.8,N
1634964255.4,286047007.4,N
1634964275.3,286047004.9,N
1634964295.1,286047001.3,N
1634964296.0,286047001.3,N
1634964315.8,286047002.9,N
1634964335.7,286047005.5,N
1634964355.5,286047003.8,N
1634964375.3,286047007.3,N
1634964395.2,286047005.1,N
1634964415.0,286047001.3,N
1634964415.9,286047001.3,N
1634964435.8,286047003.8,N
1634964455.6,286047004.1,N
1634964475.4,286047001.7,N
1634964495.3,286047003.3,N
1634964515.1,286047005.8,N
1634964535.9,286047001.4,N
1634964555.7,286047005.8,Y
1634964575.5,286047002.8,P
1634964595.4,286046998.5,P
1634964615.2,286047000.1,N
1634964635.0,286047003.5,N
1634964635.9,286047003.5,N
1634964655.8,286047003.9,N
1634964675.6,286047003.1,N
1634964695.5,286047004.2,N
1634964715.3,286047001.7,N
1634964735.1,286047000.3,N
1634964755.9,286047000.2,N
1634964775.7,286047002.7,N
1634964795.5,286047001.5,N
1634964815.4,286047004.4,N
1634964835.2,286046999.6,N
1634964855.1,286046996.8,N
1634964856.0,286047011.9,Y
1634964875.8,286046996.7,P
1634964895.6,286046998.5,N
1634964915.5,286046998.9,N
1634964935.3,286046998.4,N
1634964955.1,286046999.4,N
1634964975.9,286047001.2,N
1634964995.7,286046998.9,N
1634965015.6,286046995.6,N
1634965035.4,286046994.9,N
1634965055.2,286046996.2,N
1634965075.1,286046993.8,N
1634965076.0,286046993.8,N
1634965095.8,286046996.3,N
1634965115.7,286046997.3,N
1634965135.5,286046998.0,N
1634965155.3,286046995.0,N
1634965175.2,286046996.0,N
1634965195.9,286046995.2,N
